Regional Weather Roundup
Issued by NWS

Home | Current Version | Previous Version | Graphics & Text | Print | Product List | Glossary On
Versions: 1 2 3 4 5 6 7 8 9 10 11 12 13 14 15 16 17 18 19 20 21 22 23 24 25 26 27 28 29 30 31 32 33 34 35 36 37 38 39 40 41 42 43 44 45 46 47 48 49 50
000
ASUS43 KBIS 291320
RWRND

NORTH DAKOTA REGIONAL WEATHER ROUNDUP
NATIONAL WEATHER SERVICE BISMARCK ND
800 AM CDT SUN MAR 29 2015

NOTE: "FAIR" INDICATES FEW OR NO CLOUDS BELOW 12,000 FEET WITH NO
SIGNIFICANT WEATHER AND/OR OBSTRUCTIONS TO VISIBILITY.


NDZ001>003-009>011-017-291400-
NORTHWEST NORTH DAKOTA

CITY           SKY/WX    TMP DP  RH WIND       PRES   REMARKS
WILLISTON      CLEAR     36  32  85 W15       30.06R
MINOT          CLEAR     36  31  82 W24G31    29.94R
MINOT AFB      CLEAR     36  35  99 W22G29    29.93R
$$

NDZ018>021-031>035-040>046-291400-
SOUTHWEST NORTH DAKOTA

CITY           SKY/WX    TMP DP  RH WIND       PRES   REMARKS
BISMARCK       CLEAR     38  32  79 NW25G32   29.97R
DICKINSON      CLEAR     34  32  92 W10       30.05R
GARRISON         N/A     36  32  85 NW22      29.96R
HETTINGER ARPT CLEAR     34  31  88 NW18      30.07R
$$

NDZ004>008-012>016-024-026-027-054-291400-
NORTHEAST NORTH DAKOTA

CITY           SKY/WX    TMP DP  RH WIND       PRES   REMARKS
GRAND FORKS    CLOUDY    38  33  82 N28G35    29.67R
GRND FRKS AFB  CLOUDY    38  33  81 N21G35    29.69R
DEVILS LAKE    CLEAR     37  30  75 NW22G30   29.80R
$$

NDZ022-023-025-028>030-036>039-047>053-291400-
SOUTHEAST NORTH DAKOTA

CITY           SKY/WX    TMP DP  RH WIND       PRES   REMARKS
FARGO          LGT RAIN  41  36  82 NW25G40   29.64R
JAMESTOWN      CLOUDY    39  38  96 NW32G43   29.78R
$$




USA.gov is the U.S. government's official web portal to all federal, state and local government web resources and services.